KC5EZZ-2 Weather Reports


time (UTC)temp
C
wind
direction
speed
KPH
gust
KPH
rain 1hr
cm
rain 24hr
cm
rain mn
cm
humidity
%
barometer
mb
20260503022826 15 70 0.0 0.0 0.00 0.18 0.00
20260503022712 15 70 0.0 0.0 0.00 0.18 0.00
20260503022210 15 70 0.0 0.0 0.00 0.18 0.00
20260503021710 16 70 0.0 0.0 0.00 0.18 0.00
20260503021211 16 70 0.0 0.0 0.00 0.18 0.00
20260503020708 16 70 0.0 0.0 0.00 0.18 0.00
20260503020209 16 70 0.0 0.0 0.00 0.18 0.00
20260503015709 17 70 0.0 0.0 0.00 0.18 0.00
20260503015207 17 70 0.0 0.0 0.00 0.18 0.00
20260503014707 17 70 0.0 0.0 0.00 0.18 0.00
20260503014207 17 70 0.0 0.0 0.00 0.18 0.00
20260503013705 17 70 0.0 0.0 0.00 0.18 0.00
20260503013205 18 70 0.0 0.0 0.00 0.18 0.00
20260503012706 18 70 0.0 0.0 0.00 0.18 0.00
20260503012203 18 70 0.0 0.0 0.00 0.18 0.00
20260503011703 18 70 0.0 0.0 0.00 0.18 0.00
20260503011204 18 70 0.0 0.0 0.00 0.18 0.00
20260503010701 19 70 0.0 0.0 0.00 0.18 0.00
20260503010202 19 70 0.0 0.0 0.00 0.18 0.00
20260503005702 19 70 0.0 0.0 0.00 0.18 0.00
20260503005200 19 70 0.0 0.0 0.00 0.18 0.00
20260503004700 19 70 0.0 0.0 0.00 0.18 0.00
20260503004201 20 70 0.0 0.0 0.00 0.18 0.00
20260503003658 20 70 0.0 0.0 0.00 0.18 0.00
20260503003159 20 70 0.0 0.0 0.00 0.18 0.00
20260503002659 12 345 20.9 19.3 0.00 0.05 0.08
20260503002657 12 353 22.5 17.7 0.00 0.05 0.03
20260503002654 12 35 16.1 17.7 0.00 0.05 0.03
20260503002652 12 41 16.1 17.7 0.00 0.00 0.05
20260503002157 20 70 0.0 0.0 0.00 0.18 0.00
20260503001657 20 70 3.2 1.6 0.00 0.18 0.00
20260503001158 20 94 0.0 0.0 0.00 0.18 0.00
20260503000655 20 94 0.0 0.0 0.00 0.18 0.00
20260503000156 20 94 0.0 0.0 0.00 0.18 0.00
20260502235656 21 94 0.0 0.0 0.00 0.18 0.00
20260502235154 20 94 1.6 0.0 0.00 0.18 0.00
20260502234654 21 62 0.0 0.0 0.00 0.18 0.00
20260502234154 20 62 0.0 0.0 0.00 0.18 0.00
20260502233652 21 45 1.6 1.6 0.00 0.18 0.00
20260502233152 21 44 0.0 0.0 0.00 0.18 0.00
20260502232653 21 44 0.0 0.0 0.00 0.18 0.00
20260502232150 21 44 0.0 0.0 0.00 0.18 0.00
20260502231650 21 66 4.8 6.4 0.00 0.18 0.00
20260502231151 22 11 0.0 0.0 0.00 0.18 0.00
20260502230648 21 3 3.2 0.0 0.00 0.18 0.00
20260502230149 21 38 0.0 0.0 0.00 0.18 0.00
20260502225649 21 38 3.2 0.0 0.00 0.18 0.00
20260502225147 21 65 8.0 9.7 0.00 0.18 0.00
20260502224648 22 7 6.4 8.0 0.00 0.18 0.00
20260502224148 21 84 4.8 3.2 0.00 0.18 0.00
20260502223645 21 59 8.0 11.3 0.00 0.18 0.00
20260502223146 21 48 4.8 4.8 0.00 0.18 0.00
20260502222646 21 97 8.0 9.7 0.00 0.18 0.00
20260502222143 21 98 9.7 11.3 0.00 0.18 0.00
20260502221644 21 75 8.0 9.7 0.00 0.18 0.00
20260502221144 21 75 1.6 6.4 0.00 0.18 0.00
20260502220642 22 49 8.0 8.0 0.00 0.18 0.00
20260502220142 22 51 4.8 6.4 0.00 0.18 0.00
20260502215643 23 211 3.2 6.4 0.00 0.18 0.00
20260502215140 23 208 0.0 0.0 0.00 0.18 0.00
20260502214641 22 163 8.0 9.7 0.00 0.18 0.00
20260502214141 22 131 12.9 9.7 0.00 0.18 0.00
20260502213639 22 65 6.4 9.7 0.00 0.18 0.00
20260502213139 21 68 4.8 12.9 0.00 0.18 0.00
20260502212639 21 4 4.8 4.8 0.00 0.18 0.00
20260502212137 23 13 11.3 14.5 0.00 0.18 0.00
20260502211637 22 316 6.4 9.7 0.00 0.18 0.00
20260502211138 22 120 1.6 6.4 0.00 0.18 0.00
20260502210635 22 77 12.9 8.0 0.00 0.18 0.00
20260502210136 22 13 12.9 14.5 0.00 0.18 0.00
20260502205637 22 17 8.0 8.0 0.00 0.18 0.00
20260502205134 21 15 3.2 6.4 0.00 0.18 0.00
20260502204635 21 62 4.8 3.2 0.00 0.18 0.00
20260502204135 21 58 8.0 3.2 0.00 0.18 0.00
20260502203633 21 66 3.2 6.4 0.00 0.18 0.00
20260502203133 21 79 6.4 1.6 0.00 0.18 0.00
20260502202634 22 89 6.4 9.7 0.00 0.18 0.00
20260502202131 23 58 0.0 8.0 0.00 0.18 0.00
20260502201632 22 301 6.4 0.0 0.00 0.18 0.00
20260502201132 23 343 0.0 3.2 0.00 0.18 0.00
20260502200630 21 328 4.8 8.0 0.00 0.18 0.00
20260502200130 20 309 8.0 9.7 0.00 0.18 0.00
20260502195630 21 6 4.8 11.3 0.00 0.18 0.00
20260502195128 21 34 8.0 6.4 0.00 0.18 0.00
20260502194628 22 13 11.3 12.9 0.00 0.18 0.00
20260502194129 23 236 6.4 8.0 0.00 0.18 0.00
20260502193626 22 20 6.4 3.2 0.00 0.18 0.00
20260502193127 21 170 3.2 0.0 0.00 0.18 0.00
20260502192627 22 24 9.7 9.7 0.00 0.18 0.00
20260502192125 22 15 6.4 14.5 0.00 0.18 0.00
20260502191725 25 342 0.0 12.9 0.00 0.18 0.00
20260502191625 25 342 0.0 12.9 0.00 0.18 0.00
20260502191126 24 255 1.6 4.8 0.00 0.18 0.00
20260502190623 23 281 4.8 3.2 0.00 0.18 0.00
20260502190124 22 280 8.0 1.6 0.00 0.18 0.00
20260502185624 21 51 11.3 3.2 0.00 0.18 0.00
20260502185122 23 197 1.6 0.0 0.00 0.18 0.00
20260502184622 22 266 3.2 0.0 0.00 0.18 0.00
20260502184122 22 359 6.4 4.8 0.00 0.18 0.00
20260502183620 20 304 8.0 6.4 0.00 0.18 0.00
20260502183121 20 338 11.3 11.3 0.00 0.18 0.00
20260502182621 20 329 12.9 11.3 0.00 0.18 0.00
20260502182119 21 359 6.4 4.8 0.00 0.18 0.00
20260502181619 20 333 4.8 1.6 0.00 0.18 0.00
20260502181119 20 316 6.4 1.6 0.00 0.18 0.00
20260502180617 20 354 6.4 6.4 0.00 0.18 0.00
20260502180117 19 28 12.9 11.3 0.00 0.18 0.00
20260502170111 21 287 1.6 0.0 0.00 0.18 0.00
20260502164110 19 32 4.8 8.0 0.00 0.18 0.00
20260502163608 19 323 12.9 11.3 0.00 0.18 0.00
20260502163108 19 18 4.8 3.2 0.00 0.18 0.00
20260502162609 19 301 9.7 4.8 0.00 0.18 0.00
20260502162106 18 322 1.6 3.2 0.00 0.18 0.00
20260502161607 18 353 11.3 9.7 0.00 0.18 0.00
20260502161108 19 315 8.0 11.3 0.00 0.18 0.00
20260502160605 20 293 0.0 4.8 0.00 0.18 0.00
20260502160106 19 311 0.0 0.0 0.00 0.18 0.00
20260502152101 18 248 4.8 8.0 0.00 0.18 0.00
20260502151602 18 24 4.8 4.8 0.00 0.18 0.00
20260502151102 17 14 3.2 1.6 0.00 0.18 0.00
20260502150734 17 302 6.4 8.0 0.00 0.18 0.00
20260502150600 17 302 6.4 8.0 0.00 0.18 0.00
20260502130549 18 252 4.8 3.2 0.00 0.05 0.18
20260502123546 13 264 0.0 0.0 0.00 0.05 0.18
20260502123047 12 264 0.0 0.0 0.00 0.05 0.18
20260502122547 12 264 0.0 0.0 0.00 0.05 0.18
20260502122045 11 264 0.0 0.0 0.00 0.05 0.18
20260502121546 10 264 0.0 0.0 0.00 0.05 0.18
20260502121046 9 264 0.0 0.0 0.00 0.05 0.18
20260502120544 8 264 0.0 0.0 0.00 0.05 0.18
20260502115545 8 264 0.0 0.0 0.00 0.05 0.18
20260502115043 9 264 0.0 0.0 0.00 0.05 0.18
20260502114543 9 264 0.0 0.0 0.00 0.05 0.18
20260502114044 9 264 0.0 0.0 0.00 0.05 0.18
20260502113042 9 264 0.0 0.0 0.00 0.05 0.18
20260502112542 9 264 0.0 0.0 0.00 0.05 0.18
20260502112040 9 264 0.0 0.0 0.00 0.05 0.18
20260502111540 9 264 0.0 0.0 0.00 0.05 0.18
20260502111041 10 264 0.0 0.0 0.00 0.05 0.18
20260502110538 10 264 0.0 0.0 0.00 0.05 0.18
20260502110039 10 264 0.0 0.0 0.00 0.05 0.18
20260502105540 10 264 0.0 0.0 0.00 0.05 0.18
20260502105037 10 259 1.6 1.6 0.00 0.05 0.18
20260502104538 10 243 3.2 1.6 0.00 0.05 0.18
20260502104038 10 238 3.2 1.6 0.00 0.05 0.18
20260502103536 10 246 4.8 4.8 0.00 0.05 0.18
20260502103036 10 253 3.2 3.2 0.00 0.05 0.18
20260502102537 10 248 4.8 4.8 0.00 0.05 0.18
20260502102035 10 243 4.8 6.4 0.00 0.05 0.18
20260502101535 10 249 4.8 4.8 0.00 0.05 0.18
20260502101036 10 252 4.8 6.4 0.00 0.05 0.18
20260502100533 10 260 3.2 3.2 0.00 0.05 0.18
20260502100308 9 293 0.0 0.0 0.00 0.05 0.18
20260502091530 10 335 4.8 3.2 0.00 0.05 0.18
20260502091030 10 321 0.0 0.0 0.00 0.05 0.18
20260502090528 10 338 0.0 0.0 0.00 0.05 0.18
20260502071520 10 278 4.8 4.8 0.00 0.05 0.18
20260502071020 10 304 6.4 6.4 0.00 0.05 0.18
20260502070518 10 302 6.4 6.4 0.00 0.05 0.18
20260502070018 10 290 4.8 3.2 0.00 0.05 0.18
20260502065519 10 277 3.2 4.8 0.00 0.05 0.18
20260502065016 10 283 4.8 4.8 0.00 0.05 0.18
20260502064517 10 260 0.0 0.0 0.00 0.05 0.18
20260502064017 10 260 0.0 0.0 0.00 0.05 0.18
20260502063515 10 260 0.0 0.0 0.00 0.05 0.18
20260502063015 10 260 0.0 0.0 0.00 0.05 0.18
20260502062516 10 260 0.0 0.0 0.00 0.05 0.18
20260502062013 9 260 0.0 0.0 0.00 0.05 0.18
20260502061514 9 219 0.0 0.0 0.00 0.05 0.18
20260502061014 9 270 1.6 0.0 0.00 0.05 0.18
20260502060512 9 253 0.0 0.0 0.00 0.05 0.18
20260502060012 9 253 0.0 0.0 0.00 0.05 0.18
20260502055513 9 253 0.0 0.0 0.00 0.05 0.18
20260502055010 8 253 0.0 0.0 0.00 0.05 0.18
20260502054511 8 253 0.0 0.0 0.00 0.05 0.18
20260502054011 8 253 0.0 0.0 0.00 0.05 0.18
20260502053509 8 253 0.0 0.0 0.00 0.05 0.18
20260502053009 8 253 0.0 0.0 0.00 0.05 0.18
20260502052509 8 253 0.0 0.0 0.00 0.05 0.18
20260502052007 9 253 0.0 0.0 0.00 0.05 0.18
20260502051508 9 253 0.0 0.0 0.00 0.05 0.18
20260502051008 8 253 0.0 0.0 0.00 0.05 0.18
20260502050506 8 253 0.0 0.0 0.00 0.05 0.18
20260502050006 9 253 0.0 0.0 0.00 0.05 0.18
20260502045507 9 253 0.0 0.0 0.00 0.05 0.18
20260502045005 9 253 1.6 1.6 0.00 0.05 0.18
20260502044505 9 197 0.0 0.0 0.00 0.05 0.18
20260502044006 9 197 0.0 0.0 0.00 0.05 0.18
20260502043504 9 197 0.0 0.0 0.00 0.05 0.18
20260502043004 10 250 3.2 3.2 0.00 0.05 0.18
20260502042002 10 242 3.2 3.2 0.00 0.05 0.18
20260502041503 10 356 0.0 0.0 0.00 0.05 0.18
20260502041003 10 356 0.0 0.0 0.00 0.05 0.18
20260502040501 10 356 0.0 0.0 0.00 0.05 0.18
20260502040002 10 356 0.0 0.0 0.00 0.05 0.18
20260502035502 10 356 0.0 0.0 0.00 0.05 0.18
20260502035000 10 356 0.0 0.0 0.00 0.05 0.18
20260502034500 10 356 1.6 0.0 0.00 0.05 0.18
20260502034001 10 345 0.0 0.0 0.00 0.05 0.18
20260502033458 11 345 0.0 0.0 0.00 0.05 0.18
20260502032959 11 345 1.6 1.6 0.00 0.05 0.18
20260502032459 11 13 3.2 3.2 0.00 0.05 0.18
20260502031957 11 24 6.4 4.8 0.00 0.05 0.18
20260502031457 11 25 4.8 4.8 0.00 0.05 0.18
20260502030958 12 20 4.8 4.8 0.00 0.05 0.18
20260502030455 12 38 6.4 9.7 0.00 0.05 0.18
20260502025956 12 39 6.4 6.4 0.00 0.05 0.18
20260502025457 12 41 6.4 6.4 0.00 0.05 0.18
20260502024954 12 27 6.4 8.0 0.00 0.05 0.18
20260502024455 12 14 6.4 6.4 0.00 0.05 0.18
20260502023955 12 24 4.8 4.8 0.00 0.05 0.18
20260502023553 12 28 4.8 4.8 0.00 0.05 0.18
20260502023453 12 21 4.8 4.8 0.00 0.05 0.18
20260502022953 12 28 4.8 4.8 0.00 0.05 0.18